Hourly Data Report for October 02, 2017

All times are specified in Local Standard Time (LST). Add 1 hour to adjust for Daylight Saving Time where and when it is observed.

FORT GOOD HOPE CS
NORTHWEST TERRITORIES

66°14'32.044" N
128°38'39.081" W
81.70 m
2201450
71491
ZGH

Download Data

Hourly Data (October 2017)
Hourly Data Report for October 2, 2017
Temp Definition
°C
Dew Point Temp Definition
°C
Rel Hum Definition
%
Wind Dir Definition
10's deg

Wind Spd Definition
km/h
Visibility Definition
km
Stn Press Definition
kPa
Hmdx Definition


Wind Chill Definition


Weather Definition


TIME
00:00 3.3 -1.0 73 22 5   101.53     LegendNANA
01:00 2.7 -0.7 78 23 5   101.51     LegendNANA
02:00 4.3 -0.7 70 27 9   101.52     LegendNANA
03:00 3.4 -1.5 70 25 8   101.48     LegendNANA
04:00 0.2 -2.3 84 23 7   101.44     LegendNANA
05:00 -0.7 -2.7 87 18 7   101.41   -3 LegendNANA
06:00 -0.4 -2.7 85 18 4   101.38   -2 LegendNANA
07:00 0.2 -2.6 81 21 7   101.37     LegendNANA
08:00 -0.7 -2.7 86 25 3   101.34   -2 LegendNANA
09:00 -0.2 -2.7 83 10 9   101.29   -3 LegendNANA
10:00 3.1 -1.6 71 11 6   101.23     LegendNANA
11:00 3.2 -1.0 74 12 2   101.20     LegendNANA
12:00 4.0 0.0 75 6 4   101.14     LegendNANA
13:00 4.0 -0.5 73 7 10   101.02     LegendNANA
14:00 5.3 -0.1 68 7 11   100.91     LegendNANA
15:00 6.4 0.1 64 7 10   100.85     LegendNANA
16:00 6.7 -0.3 61 8 12   100.72     LegendNANA
17:00 6.3 -0.2 63 8 12   100.57     LegendNANA
18:00 6.1 0.9 69 8 12   100.52     LegendNANA
19:00 5.9 1.6 74 8 15   100.49     LegendNANA
20:00 5.1 1.5 77 9 18   100.37     LegendNANA
21:00 4.4 1.4 81 8 14   100.32     LegendNANA
22:00 4.0 1.4 83 7 14   100.29     LegendNANA
23:00 3.8 1.2 83 8 10   100.35     LegendNANA

Notes on Data Quality.

Legend

  • E = Estimated
  • M = Missing
  • NA = Not Available
  • ‡ = Partner data that is not subject to review by the National Climate Archives
Date modified: